User: anonymous   Login
Location: �perlecques
(50.8057°N, 2.1521°E)
Time: 00:07:45
(UTC+00:00)
Language:

STARLINK-1204 - Orbit

View from above orbital plane
View from above orbital plane
View from above satellite
View from above satellite

Ground track
Ground track

The orbit data is extracted from the following two-line orbital elements,

1 45203U 20012AB  20188.83334491  .00045704  00000-0  31387-2 0  9997
2 45203  52.9972 327.5488 0001387 102.6387 206.7869 15.05544029 21896
Epoch (UTC): 06 July 2020 20:00:01
Eccentricity: 0.0001387
inclination: 52.9972°
perigee height: 549 km
apogee height: 551 km
right ascension of ascending node: 327.5488°
argument of perigee: 102.6387°
revolutions per day: 15.05544029
mean anomaly at epoch: 206.7869°
orbit number at epoch: 2189

The dashed part of the orbit path shows where the satellite is in the earth's shadow,  

DLR